This demonstration page uses our WeatherBlox Daily Observations layout. Learn more.

Left ArrowRight Arrow

41.86663, -103.66717

Hourly Observations for November 1, 2020

Temp ( °F °C ) Dew Point ( °F °C ) Humidity (%) Winds ( mph kmh ) Pressure ( in mb ) Visibility ( mi km ) Precip ( " mm )
12:53 am 00:53 Clear 28 -2.2 25 -3.9 88 88 N 6 9 30.43 1031 10 16 0.00 0.00
1:53 am 01:53 Clear 26 -3.3 23 -5 88 88 NNW 5 7 30.45 1031 10 16 0.00 0.00
1:53 am 01:53 Clear 27 -2.8 24 -4.4 89 89 E 8 13 30.45 1031 10 16 0.00 0.00
2:53 am 02:53 Clear 26 -3.3 23 -5 88 88 ESE 6 9 30.43 1031 10 16 0.00 0.00
3:53 am 03:53 Clear 28 -2.2 25 -3.9 88 88 ENE 10 17 30.43 1030 10 16 0.00 0.00
4:53 am 04:53 Clear 29 -1.7 26 -3.3 89 89 E 9 15 30.45 1031 10 16 0.00 0.00
5:53 am 05:53 Clear 26 -3.3 24 -4.4 92 92 ESE 7 11 30.47 1032 10 16 0.00 0.00
6:53 am 06:53 Sunny 29 -1.7 26 -3.3 89 89 E 9 15 30.47 1032 10 16 0.00 0.00
7:53 am 07:53 Sunny 33 0.6 30 -1.1 89 89 ESE 13 20 30.50 1033 10 16 0.00 0.00
8:53 am 08:53 Sunny 39 3.9 32 0 76 76 ESE 10 17 30.49 1032 10 16 0.00 0.00
9:53 am 09:53 Sunny 45 7.2 32 0 61 61 SE 8 13 30.47 1032 10 16 0.00 0.00
10:53 am 10:53 Sunny 49 9.4 33 0.6 55 55 SE 5 7 30.46 1031 10 16 0.00 0.00
11:53 am 11:53 Sunny 52 11.1 32 0 47 47 Calm 30.43 1031 10 16 0.00 0.00
12:53 pm 12:53 Sunny 57 13.9 32 0 39 39 N 5 7 30.40 1030 10 16 0.00 0.00
1:53 pm 13:53 Sunny 61 16.1 28 -2.2 29 29 Calm 30.37 1029 10 16 0.00 0.00
2:53 pm 14:53 Sunny 61 16.1 27 -2.8 27 27 Calm 30.37 1028 10 16 0.00 0.00
3:53 pm 15:53 Sunny 60 15.6 27 -2.8 28 28 SSE 3 6 30.37 1028 10 16 0.00 0.00
4:53 pm 16:53 Clear 51 10.6 31 -0.6 46 46 SE 3 6 30.40 1029 10 16 0.00 0.00
5:53 pm 17:53 Clear 45 7.2 32 0 61 61 SSE 5 7 30.43 1031 10 16 0.00 0.00
6:53 pm 18:53 Clear 41 5 30 -1.1 65 65 E 5 7 30.45 1031 10 16 0.00 0.00
7:53 pm 19:53 Clear 39 3.9 30 -1.1 70 70 E 6 9 30.45 1031 10 16 0.00 0.00
8:53 pm 20:53 Clear 37 2.8 29 -1.7 73 73 ESE 5 7 30.41 1030 10 16 0.00 0.00
9:53 pm 21:53 Clear 36 2.2 29 -1.7 76 76 NE 7 11 30.40 1030 10 16 0.00 0.00
10:53 pm 22:53 Clear 31 -0.6 27 -2.8 85 85 NW 7 11 30.40 1029 10 16 0.00 0.00
11:53 pm 23:53 Clear 33 0.6 28 -2.2 82 82 NNW 7 11 30.37 1028 10 16 0.00 0.00

Powered by AerisWeather